Glasgow, United Kingdom

4:12 AM BST on June 25, 2017 (GMT +0100)
Glasgow

Weather History for EGPF - January, 2014

Change the Weather History Date:

Sunday, January 26, 2014

  Actual Average Record
Temperature  
Mean Temperature 42 °F -  
Max Temperature 46 °F 44 °F 53 °F (2003)
Min Temperature 39 °F 32 °F 19 °F (1998)
Degree Days  
Heating Degree Days 22    
Moisture  
Dew Point 36 °F    
Average Humidity 85    
Maximum Humidity 93    
Minimum Humidity 76    
Precipitation  
Precipitation 0.00 in - - ()
Sea Level Pressure  
Sea Level Pressure 29.13 in    
Wind  
Wind Speed 14 mph ()    
Max Wind Speed 24 mph    
Max Gust Speed 34 mph    
Visibility 5.4 miles    
Events Rain    
Averages and records for this station are not official NWS values.
T = Trace of Precipitation, MM = Missing Value Source: Averaged Metar Reports

Daily Weather History Graph

Daily Weather History Graph

Search for Another Location

Airport or City:

Trip Planner

Search our weather history database for the weather conditions in past years. The results will help you decide how hot, cold, wet, or windy it might be!

Date:

Astronomy

Jan. 26, 2014 Rise Set
Actual Time 8:22 AM GMT 4:38 PM GMT
Civil Twilight 7:40 AM GMT 5:20 PM GMT
Nautical Twilight 6:55 AM GMT 6:06 PM GMT
Astronomical Twilight 6:11 AM GMT 6:49 PM GMT
Moon 3:47 AM GMT (1/26) 12:10 PM GMT (1/26)
Length of Visible Light 9h 39m
Length of Day
8h 15m
Waning Crescent, 26% of the Moon is Illuminated
Jan 26
Waning Crescent
Jan 30
New
Feb 6
First Quarter
Feb 14
Full
Feb 22
Last Quarter

Hourly Weather History & Observations

Time (GMT) Temp. Windchill Dew Point Humidity Pressure Visibility Wind Dir Wind Speed Gust Speed Precip Events Conditions
12:20 AM 39.2 °F 31.6 °F 35.6 °F 87% 29.71 in 6.2 mi WSW 12.7 mph - N/A   Mostly Cloudy
12:50 AM 39.2 °F 31.6 °F 35.6 °F 87% 29.71 in 6.2 mi WSW 12.7 mph - N/A   Scattered Clouds
1:20 AM 39.2 °F 32.5 °F 35.6 °F 87% 29.71 in 6.2 mi SW 10.4 mph - N/A   Mostly Cloudy
1:50 AM 39.2 °F 32.5 °F 35.6 °F 87% 29.68 in 6.2 mi SSW 10.4 mph - N/A   Scattered Clouds
2:20 AM 39.2 °F 32.0 °F 35.6 °F 87% 29.68 in - SSW 11.5 mph - N/A   Clear
2:50 AM 39.2 °F 32.5 °F 35.6 °F 87% 29.65 in 6.2 mi South 10.4 mph - N/A   Scattered Clouds
3:20 AM 39.2 °F 32.0 °F 35.6 °F 87% 29.62 in 6.2 mi SSE 11.5 mph - N/A   Scattered Clouds
3:50 AM 39.2 °F 32.5 °F 35.6 °F 87% 29.59 in 6.2 mi South 10.4 mph - N/A   Partly Cloudy
4:20 AM 39.2 °F 31.2 °F 33.8 °F 81% 29.56 in 6.2 mi SSE 13.8 mph - N/A   Mostly Cloudy
4:50 AM 39.2 °F 32.5 °F 35.6 °F 87% 29.53 in 4.3 mi SSE 10.4 mph - N/A Rain Light Rain
5:20 AM 39.2 °F 33.0 °F 35.6 °F 87% 29.47 in 4.3 mi SSE 9.2 mph - N/A Rain Light Rain
5:50 AM 39.2 °F 32.5 °F 35.6 °F 87% 29.44 in 5.0 mi SSE 10.4 mph - N/A Rain Light Rain
6:20 AM 39.2 °F 32.0 °F 37.4 °F 93% 29.39 in 3.7 mi SSE 11.5 mph - N/A Rain Light Rain
6:50 AM 41.0 °F 33.5 °F 37.4 °F 87% 29.33 in 5.6 mi SE 13.8 mph - N/A Rain Light Rain
7:20 AM 41.0 °F 33.5 °F 37.4 °F 87% 29.27 in 5.6 mi SE 13.8 mph - N/A Rain Light Rain
7:50 AM 41.0 °F 33.9 °F 37.4 °F 87% 29.21 in 5.6 mi SE 12.7 mph - N/A Rain Light Rain
8:20 AM 41.0 °F 33.5 °F 39.2 °F 93% 29.15 in 4.3 mi SSE 13.8 mph - N/A Rain Rain
8:50 AM 41.0 °F 32.2 °F 37.4 °F 87% 29.12 in 3.1 mi SSE 18.4 mph - N/A Rain Rain
9:20 AM 41.0 °F 31.6 °F 37.4 °F 87% 29.09 in 2.2 mi SSE 20.7 mph - N/A Rain Rain
9:50 AM 41.0 °F 32.5 °F 37.4 °F 87% 29.03 in 2.2 mi SSE 17.3 mph - N/A Rain Rain
10:20 AM 42.8 °F 34.0 °F 39.2 °F 87% 29.00 in 2.2 mi South 20.7 mph 33.4 mph N/A Rain Rain
10:50 AM 42.8 °F 33.5 °F 39.2 °F 87% 28.97 in 5.6 mi South 23.0 mph - N/A Rain Light Rain
11:20 AM 44.6 °F 38.8 °F 41.0 °F 87% 28.97 in 6.2 mi SSW 11.5 mph - N/A Rain Light Rain
11:50 AM 44.6 °F 39.7 °F 42.8 °F 93% 28.94 in 6.2 mi WSW 9.2 mph - N/A   Mostly Cloudy
12:20 PM 46.4 °F 42.4 °F 41.0 °F 81% 28.94 in 6.2 mi WSW 8.1 mph - N/A   Scattered Clouds
12:50 PM 44.6 °F 36.9 °F 39.2 °F 81% 28.94 in 6.2 mi SW 18.4 mph - N/A   Mostly Cloudy
1:20 PM 44.6 °F 36.1 °F 37.4 °F 76% 28.91 in 6.2 mi SW 21.9 mph 33.4 mph N/A   Scattered Clouds
1:50 PM 44.6 °F 36.4 °F 37.4 °F 76% 28.91 in 6.2 mi SW 20.7 mph - N/A   Mostly Cloudy
2:20 PM 42.8 °F 34.8 °F 35.6 °F 76% 28.91 in 6.2 mi SW 17.3 mph - N/A   Mostly Cloudy
2:50 PM 42.8 °F 33.5 °F 37.4 °F 81% 28.91 in 6.2 mi WSW 23.0 mph - N/A Rain Light Rain
3:20 PM 41.0 °F 33.1 °F 35.6 °F 81% 28.91 in 6.2 mi WSW 15.0 mph - N/A   Mostly Cloudy
3:50 PM 41.0 °F 31.9 °F 35.6 °F 81% 28.91 in 6.2 mi SW 19.6 mph 31.1 mph N/A Rain Light Rain Showers
4:20 PM 39.2 °F 31.2 °F 35.6 °F 87% 28.91 in 5.0 mi SW 13.8 mph - N/A Rain Light Rain Showers
4:50 PM 41.0 °F 33.5 °F 35.6 °F 81% 28.91 in 6.2 mi WSW 13.8 mph - N/A   Mostly Cloudy
5:20 PM 39.2 °F 29.8 °F 35.6 °F 87% 28.91 in 6.2 mi SW 18.4 mph - N/A   Mostly Cloudy
5:50 PM 41.0 °F 31.9 °F 33.8 °F 76% 28.91 in 6.2 mi SSW 19.6 mph - N/A   Mostly Cloudy
6:20 PM 41.0 °F 32.2 °F 33.8 °F 76% 28.91 in 6.2 mi SSW 18.4 mph - N/A   Mostly Cloudy
6:50 PM 41.0 °F 31.9 °F 33.8 °F 76% 28.91 in 6.2 mi SW 19.6 mph - N/A   Mostly Cloudy
7:20 PM 39.2 °F 29.6 °F 35.6 °F 87% 28.91 in 6.2 mi SSW 19.6 mph - N/A   Mostly Cloudy
7:50 PM 39.2 °F 29.6 °F 35.6 °F 87% 28.88 in 6.2 mi SW 19.6 mph - N/A   Mostly Cloudy
8:20 PM 39.2 °F 28.5 °F 35.6 °F 87% 28.88 in 5.0 mi SSW 24.2 mph - N/A Rain Light Rain
8:50 PM 41.0 °F 31.4 °F 33.8 °F 76% 28.88 in 6.2 mi SSW 21.9 mph - N/A Rain Light Rain
9:20 PM 39.2 °F 28.5 °F 33.8 °F 81% 28.88 in 5.0 mi SSW 24.2 mph - N/A Rain Light Rain
9:50 PM 39.2 °F 29.0 °F 33.8 °F 81% 28.88 in 5.0 mi SSW 21.9 mph 34.5 mph N/A Rain Light Rain
10:20 PM 39.2 °F 29.0 °F 33.8 °F 81% 28.85 in 6.2 mi SSW 21.9 mph - N/A Rain Light Rain
10:50 PM 39.2 °F 29.0 °F 35.6 °F 87% 28.85 in 5.6 mi SSW 21.9 mph - N/A Rain Light Rain
11:20 PM 39.2 °F 29.6 °F 35.6 °F 87% 28.85 in 5.0 mi SSW 19.6 mph - N/A Rain Light Rain
11:50 PM 39.2 °F 29.6 °F 35.6 °F 87% 28.82 in 4.3 mi SSW 19.6 mph - N/A Rain Light Rain